#timestamp,LO_Frequency,Hit 
1503280815.1,286047012.4,N
1503280816.0,286047012.4,N
1503280835.8,286047011.5,N
1503280855.7,286047006.1,N
1503280875.5,286047008.9,N
1503280895.3,286047012.3,N
1503280915.2,286047012.4,N
1503280935.9,286047014.9,N
1503280955.7,286047014.2,N
1503280975.5,286047009.8,N
1503280995.4,286047007.8,N
1503281015.2,286047006.1,N
1503281035.0,286047007.6,N
1503281035.9,286047007.6,N
1503281055.8,286047003.3,N
1503281075.6,286047005.2,N
1503281095.4,286047008.7,N
1503281115.3,286047011.6,P
1503281135.1,286047001.3,N
1503281155.8,286047002.5,N
1503281175.7,286046999.7,N
1503281195.5,286047002.2,N
1503281215.3,286047000.9,N
1503281235.2,286047002.7,N
1503281255.9,286047004.3,N
1503281275.7,286047007.5,N
1503281295.6,286047004.6,N
1503281315.4,286047004.4,N
1503281335.2,286047008.7,N
1503281355.1,286047008.6,N
1503281356.0,286047008.6,N
1503281375.8,286047007.2,N
1503281395.6,286047002.5,N
1503281415.4,286047001.6,N
1503281435.3,286047006.0,N
1503281455.1,286047005.6,N
1503281475.8,286047008.6,N
1503281495.7,286047008.7,N
1503281515.5,286047007.5,N
1503281535.3,286047008.1,N
1503281555.2,286047004.5,N
1503281575.9,286047004.6,N
1503281595.7,286047003.7,N
1503281615.6,286047002.1,N
1503281635.4,286047004.9,N
1503281655.2,286047007.4,N
1503281675.1,286047009.2,P
1503281676.0,286047009.2,P
1503281695.8,286046996.6,N
1503281715.6,286046998.7,N
1503281735.5,286046998.1,N
1503281755.3,286047001.5,N
1503281775.1,286047003.3,N
1503281795.9,286047001.9,N
1503281815.7,286047000.0,N
1503281835.5,286046999.5,N
1503281855.3,286046999.6,N
1503281875.2,286046998.7,N
1503281895.0,286046999.1,N
1503281895.9,286046999.1,N
1503281915.7,286047000.3,N
1503281935.6,286046998.3,N
1503281955.4,286046996.6,N
1503281975.2,286046996.8,N
1503281995.1,286046998.9,N
1503281996.0,286046998.9,N
1503282015.8,286046997.3,N
1503282035.6,286046995.8,N
1503282055.5,286046995.0,N
1503282075.3,286046994.9,N
1503282095.1,286046998.4,N
1503282115.9,286047002.6,N
1503282135.7,286047000.4,N
1503282155.5,286046996.7,N
1503282175.3,286046998.7,N
1503282195.2,286047003.7,N
1503282215.0,286047007.0,N
1503282215.9,286047007.0,N
1503282235.7,286047005.2,N
1503282255.6,286047003.4,N
1503282275.4,286047001.8,N
1503282295.2,286047001.0,N
1503282315.1,286046998.6,N
1503282316.0,286046998.6,N
1503282335.8,286047004.0,N
1503282355.6,286047004.2,N
1503282375.5,286047001.4,N
1503282395.3,286047003.4,N
1503282415.1,286047003.2,N
1503282435.9,286047000.0,N
1503282455.7,286046999.6,N
1503282475.5,286046997.3,N
1503282495.3,286046998.1,N
1503282515.2,286047002.9,N
1503282535.0,286047004.8,N
1503282535.9,286047004.8,N
1503282555.7,286047009.2,N
1503282575.6,286047008.8,N
1503282595.4,286047006.1,N
1503282615.2,286047010.0,N
1503282635.1,286047009.5,N
1503282636.0,286047009.5,N
1503282655.8,286047009.1,N
1503282675.6,286047006.4,N
1503282695.5,286047006.2,N
1503282715.3,286047006.2,N
1503282735.1,286047006.9,N
1503282755.9,286047007.8,N
1503282775.7,286047009.3,N
1503282795.5,286047006.2,N
1503282815.4,286047012.2,P
1503282835.2,286047011.6,P
1503282855.0,286047013.6,P
1503282855.9,286047013.6,P
1503282875.8,286047003.6,N
1503282895.6,286047001.4,N
1503282915.4,286047002.2,N
1503282935.3,286046999.4,N
1503282955.1,286046996.2,N
1503282975.8,286046997.6,N
1503282995.7,286046997.7,N
1503283015.5,286046998.2,N
1503283035.3,286046999.0,N
1503283055.2,286047000.1,N
1503283075.9,286047005.6,N
1503283095.7,286047003.0,N
1503283115.5,286047007.1,N
1503283135.4,286047006.3,N
1503283155.2,286047006.0,N
1503283175.0,286047003.1,N
1503283175.9,286047003.1,N
1503283195.8,286047005.4,N
1503283215.6,286047004.5,N
1503283235.4,286047008.0,N
1503283255.3,286047006.7,N
1503283275.1,286047002.6,N
1503283295.8,286047003.0,N
1503283315.7,286047006.4,N
1503283335.5,286047012.4,P
1503283355.3,286047006.0,N
1503283375.2,286047002.9,N
1503283395.9,286047004.0,N
1503283415.7,286047002.2,N
1503283435.6,286047005.9,N
1503283455.4,286047005.4,N
1503283475.2,286047005.2,N
1503283495.1,286047005.8,N
1503283496.0,286047005.8,N
1503283515.8,286047008.0,P
1503283535.6,286046999.9,N
1503283555.5,286047002.8,N
1503283575.3,286047002.1,N
1503283595.1,286046998.3,N
1503283615.9,286046998.5,N
1503283635.7,286047000.9,N
1503283655.5,286046996.5,N
1503283675.4,286046998.0,N
1503283695.2,286046997.9,N
1503283715.0,286046997.8,N
1503283715.9,286046997.8,N
1503283735.7,286046997.7,N
1503283755.6,286046996.8,N
1503283775.4,286046996.1,N
1503283795.2,286046997.2,N
1503283815.1,286046998.2,N
1503283816.0,286046998.2,N
1503283835.8,286046999.8,N
1503283855.6,286047000.4,N
1503283875.5,286046996.1,N
1503283895.3,286046995.0,N
1503283915.1,286046990.6,P
1503283935.9,286046995.3,N
1503283955.7,286046999.5,N
1503283975.5,286046995.9,N
1503283995.4,286046997.6,N
1503284015.2,286047000.2,N
1503284035.0,286047002.1,N
1503284035.9,286047002.1,N
1503284055.8,286046998.4,N
1503284075.6,286046999.4,N
1503284095.4,286046999.4,N
1503284115.3,286047000.5,N
1503284135.1,286047000.2,N
1503284136.0,286047000.2,N
1503284155.8,286047000.0,N
1503284175.6,286047002.3,N
1503284195.5,286047003.8,N
1503284215.3,286047003.4,N
1503284235.1,286047005.2,N
1503284255.9,286047007.6,N
1503284275.7,286047005.9,N
1503284295.5,286047006.8,N
1503284315.4,286047006.2,N
1503284335.2,286047006.7,N
1503284355.0,286047008.4,N
1503284355.9,286047008.4,N
1503284375.8,286047007.3,N
1503284395.6,286047007.2,N
